Oslo Airport, Norway

5:04 AM CEST on May 22, 2018 (GMT +0200)
Gardermoen

Weather History for ENGM - March, 2013

Change the Weather History Date:

Sunday, March 3, 2013

  Actual Average Record
Temperature  
Mean Temperature 35 °F -  
Max Temperature 42 °F 37 °F 44 °F (1997)
Min Temperature 28 °F 22 °F -7 °F (2005)
Degree Days  
Heating Degree Days 30    
Moisture  
Dew Point 15 °F    
Average Humidity 45    
Maximum Humidity 64    
Minimum Humidity 26    
Precipitation  
Precipitation 0.01 in 0.07 in - ()
Sea Level Pressure  
Sea Level Pressure 29.88 in    
Wind  
Wind Speed 7 mph ()    
Max Wind Speed 20 mph    
Max Gust Speed 28 mph    
Averages and records for this station are not official NWS values.
T = Trace of Precipitation, MM = Missing Value Source: Averaged Metar Reports

Daily Weather History Graph

Daily Weather History Graph

Search for Another Location

Airport or City:

Astronomy

Mar. 03, 2013 Rise Set
Actual Time 7:08 AM CET 5:47 PM CET
Civil Twilight 6:26 AM CET 6:30 PM CET
Nautical Twilight 5:38 AM CET 7:18 PM CET
Astronomical Twilight 4:48 AM CET 8:08 PM CET
Moon 12:44 AM CET (3/3) 8:29 AM CET (3/3)
Length of Visible Light 12h 03m
Length of Day
10h 39m
Waning Gibbous, 66% of the Moon is Illuminated
Mar 3
Waning Gibbous
Mar 4
Last Quarter
Mar 11
New
Mar 19
First Quarter
Mar 27
Full

Hourly Weather History & Observations

Time (CET) Temp. Windchill Dew Point Humidity Pressure Visibility Wind Dir Wind Speed Gust Speed Precip Events Conditions
12:10 AM 33.8 °F 25.8 °F 14.0 °F 44% 29.68 in - NW 10.4 mph - N/A   Clear
12:40 AM 33.8 °F 24.8 °F 15.8 °F 48% 29.68 in - NW 12.7 mph - N/A   Clear
1:00 AM 33 °F - 17 °F 37%  in 47 mi NNW 20.1 mph - -   Partly Cloudy
1:11 AM 33.8 °F 25.8 °F 15.8 °F 48% 29.68 in - NNW 10.4 mph 24.2 mph N/A   Clear
1:40 AM 33.8 °F 25.3 °F 12.2 °F 41% 29.71 in - North 11.5 mph - N/A   Clear
2:10 AM 32.0 °F 22.1 °F 12.2 °F 44% 29.71 in - North 13.8 mph - N/A   Clear
2:42 AM 32.0 °F 25.6 °F 12.2 °F 44% 29.71 in - NW 6.9 mph - N/A   Clear
3:21 AM 32.0 °F 23.0 °F 10.4 °F 41% 29.74 in - NNW 11.5 mph 27.6 mph N/A   Clear
3:42 AM 32.0 °F 26.4 °F 12.2 °F 44% 29.74 in - North 5.8 mph - N/A   Clear
4:12 AM 32.0 °F 22.1 °F 12.2 °F 44% 29.77 in - North 13.8 mph - N/A   Clear
4:54 AM 32.0 °F 26.4 °F 12.2 °F 44% 29.77 in - WNW 5.8 mph - N/A   Clear
5:11 AM 30.2 °F 23.4 °F 14.0 °F 51% 29.77 in - NW 6.9 mph - N/A   Clear
5:48 AM 30.2 °F 24.3 °F 14.0 °F 51% 29.80 in - NW 5.8 mph - N/A   Clear
6:10 AM 30.2 °F 26.7 °F 14.0 °F 51% 29.80 in - NW 3.5 mph - N/A   Clear
6:40 AM 30.2 °F 24.3 °F 14.0 °F 51% 29.83 in - NW 5.8 mph - N/A   Clear
7:10 AM 28.4 °F 21.2 °F 14.0 °F 55% 29.83 in - NNW 6.9 mph - N/A   Clear
7:40 AM 30.2 °F 24.3 °F 14.0 °F 51% 29.83 in - NNW 5.8 mph - N/A   Clear
8:10 AM 30.2 °F 24.3 °F 14.0 °F 51% 29.86 in - WNW 5.8 mph - N/A   Clear
8:40 AM 32.0 °F 26.4 °F 14.0 °F 48% 29.89 in - NW 5.8 mph - N/A   Clear
9:10 AM 33.8 °F 29.6 °F 14.0 °F 44% 29.89 in - North 4.6 mph - N/A   Clear
9:40 AM 33.8 °F 28.6 °F 14.0 °F 44% 29.89 in - NW 5.8 mph - N/A   Clear
10:10 AM 35.6 °F 31.7 °F 14.0 °F 41% 29.92 in - NW 4.6 mph - N/A   Clear
10:40 AM 35.6 °F 29.9 °F 14.0 °F 41% 29.92 in - WNW 6.9 mph - N/A   Clear
11:10 AM 37.4 °F 32.8 °F 15.8 °F 41% 29.92 in - NW 5.8 mph - N/A   Clear
11:40 AM 37.4 °F 32.8 °F 14.0 °F 38% 29.95 in - NNW 5.8 mph - N/A   Clear
12:10 PM 39.2 °F 35.9 °F 17.6 °F 42% 29.95 in - North 4.6 mph - N/A   Clear
12:40 PM 41.0 °F 38.0 °F 15.8 °F 36% 29.95 in - North 4.6 mph - N/A   Clear
1:00 PM 40 °F - 17 °F 26%  in 47 mi West 2.2 mph - -   Partly Cloudy
1:10 PM 42.8 °F 41.1 °F 15.8 °F 34% 29.95 in - ENE 3.5 mph - N/A   Clear
1:40 PM 41.0 °F 36.4 °F 15.8 °F 36% 29.95 in - WNW 6.9 mph - N/A   Clear
2:10 PM 41.0 °F 36.4 °F 14.0 °F 33% 29.95 in - West 6.9 mph - N/A   Clear
2:40 PM 41.0 °F 36.4 °F 14.0 °F 33% 29.95 in - WNW 6.9 mph - N/A   Clear
3:10 PM 41.0 °F 37.1 °F 14.0 °F 33% 29.95 in - West 5.8 mph - N/A   Clear
3:40 PM 41.0 °F 37.1 °F 15.8 °F 36% 29.95 in - WSW 5.8 mph - N/A   Clear
4:10 PM 39.2 °F 35.9 °F 15.8 °F 39% 29.95 in - West 4.6 mph - N/A   Clear
4:40 PM 41.0 °F 38.0 °F 15.8 °F 36% 29.95 in - West 4.6 mph - N/A   Clear
5:10 PM 39.2 °F 35.0 °F 15.8 °F 39% 29.95 in - West 5.8 mph - N/A   Clear
5:40 PM 37.4 °F 33.8 °F 15.8 °F 41% 29.98 in - Variable 4.6 mph - N/A   Clear
6:12 PM 35.6 °F 31.7 °F 15.8 °F 44% 29.98 in - WSW 4.6 mph - N/A   Clear
6:41 PM 35.6 °F - 14.0 °F 41% 29.98 in - Variable 2.3 mph - N/A   Clear
7:00 PM 36 °F - 16 °F 31%  in 47 mi NW 4.5 mph - -   Partly Cloudy
7:10 PM 33.8 °F - 14.0 °F 44% 29.98 in - Variable 2.3 mph - N/A   Clear
7:40 PM 32.0 °F 27.5 °F 15.8 °F 51% 29.98 in - NNW 4.6 mph - N/A   Clear
8:10 PM 32.0 °F - 14.0 °F 48% 29.98 in - Variable 2.3 mph - N/A   Clear
8:40 PM 30.2 °F 25.4 °F 15.8 °F 55% 29.98 in - NW 4.6 mph - N/A   Clear
9:10 PM 28.4 °F - 17.6 °F 64% 29.98 in - Variable 2.3 mph - N/A   Clear
9:40 PM 28.4 °F - 17.6 °F 64% 29.98 in - Variable 2.3 mph - N/A   Clear
10:10 PM 28.4 °F 24.6 °F 17.6 °F 64% 29.98 in - SSW 3.5 mph - N/A   Clear
10:41 PM 28.4 °F - 17.6 °F 64% 29.98 in - Calm Calm - N/A   Clear
11:10 PM 28.4 °F - 17.6 °F 64% 29.98 in - Variable 2.3 mph - N/A   Clear
11:40 PM 28.4 °F - 17.6 °F 64% 29.98 in - Calm Calm - N/A   Clear